[[{"header":{"parameterUnit":"m.s-1","parameterCategory":1,"la1":30.2991,"la2":30.254,"lo1":-89.0895,"lo2":-89.0444,"dx":0.0017,"dy":0.0017,"nx":28,"ny":28,"refTime":"2023-02-12T09:00:00:Z","depth":0,"parameterNumber":2,"parameterNumberName":"U-component_of_WINDS"},"data":[0,0,0,0,0,0,0,0,0,0,0,0,0,0,0,0,0,0,0,0,0,0,0,0,0,0,0,0,0,0,0,0,0,0,0,0,0,0,0,0,0,0,0,0,0,0,0,0,0,0,0,0,0,0,0,0,0,0,0.5911,0.5911,0,0.5942,0.5942,0.5943,0.5938,0.5938,0.5937,0.5937,0.5968,0.5969,0.5971,0,0,0,0,0,0,0,0,0,0,0,0,0,0.5845,0.5847,0.5911,0.5911,0.5911,0.5942,0.5942,0.5943,0.5939,0.5938,0.5937,0.5937,0.5968,0.5969,0.5971,0,0,0,0,0,0,0,0,0,0,0,0,0,0.5875,0.5847,0.5911,0.5913,0.5914,0.5942,0.5942,0.5943,0.5939,0.5938,0.5937,0.5936,0.5967,0.5969,0.5971,0.5998,0,0,0.5977,0.5978,0,0,0,0,0,0,0,0,0.5873,0.5877,0.5912,0.5913,0.5914,0.5935,0.5931,0.5961,0.5939,0.5929,0.5937,0.5936,0.5958,0.5961,0.5968,0.6,0.6001,0.5977,0.5978,0.5979,0.598,0,0,0,0,0,0,0,0.5871,0.5876,0.5923,0.5913,0.5914,0.5912,0.5915,0.5936,0.5947,0.593,0.593,0.5934,0.5958,0.5966,0.5969,0.6002,0.5977,0.5979,0.598,0.5981,0.6055,0.6056,0,0,0,0,0,0,0.5869,0.5874,0.5922,0.5924,0.5891,0.5914,0.5917,0.5929,0.5947,0.5949,0.5934,0.5933,0.5963,0.5966,0.597,0.6001,0.5979,0.5981,0.5982,0.6054,0.6055,0.6056,0,0,0,0,0,0,0.5867,0.5873,0.5921,0.5899,0.5905,0.5916,0.5929,0.593,0.5938,0.595,0.5952,0.5941,0.5963,0.5967,0.5991,0.6003,0.5982,0.5984,0.6054,0.6055,0.6056,0.6066,0,0,0,0,0,0,0.5866,0.5873,0.5884,0.5899,0.5906,0.5942,0.593,0.5931,0.5942,0.5941,0.5957,0.5959,0.5962,0.5988,0.5993,0.6005,0.5985,0.6053,0.6054,0.6056,0.6065,0.6067,0.607,0,0,0,0,0,0.5863,0.5886,0.5884,0.589,0.592,0.5943,0.5946,0.5951,0.5943,0.5953,0.5961,0.5958,0.6001,0.599,0.5996,0.6009,0.6052,0.6054,0.6055,0.6063,0.6067,0.607,0,0,0,0,0,0,0.5871,0.5888,0.5886,0.5915,0.5927,0.5942,0.5956,0.5954,0.5969,0.5968,0.5972,0.5975,0.5999,0.6006,0.5995,0.6035,0.6025,0.6028,0.6029,0.6033,0.6035,0.6032,0.5987,0,0,0,0,0,0.5876,0.5893,0.5907,0.593,0.5937,0.5945,0.5955,0.5957,0.597,0.5975,0.5984,0.5997,0.6013,0.6023,0.6039,0.6066,0.6068,0.6077,0.608,0.6082,0.6084,0.6097,0.61,0.6062,0.6062,0.6062,0,0,0.5887,0.5898,0.5909,0.5932,0.5942,0.5959,0.595,0.5968,0.598,0.5978,0.6001,0.6008,0.6022,0.6047,0.6058,0.6054,0.6095,0.6084,0.6086,0.6087,0.6099,0.6103,0.6106,0.6063,0.6063,0.6063,0,0,0.5914,0.5925,0.5945,0.5955,0.597,0.5975,0.598,0.5994,0.5999,0.6022,0.602,0.6034,0.6062,0.6072,0.608,0.6109,0.6107,0.6114,0.6127,0.614,0.6143,0.6145,0.6154,0.6158,0.6117,0.6117,0.6117,0,0.5925,0.5951,0.5955,0.5974,0.5983,0.5982,0.6001,0.6011,0.603,0.6036,0.6031,0.6064,0.6074,0.61,0.6107,0.6115,0.6119,0.6112,0.6142,0.6145,0.6147,0.6156,0.6159,0.6117,0.6117,0.6117,0.6117,0,0.5963,0.5981,0.5995,0.6013,0.6024,0.6043,0.6049,0.606,0.6061,0.6066,0.6089,0.61,0.6117,0.6123,0.6125,0.6149,0.6146,0.6141,0.6131,0.6152,0.616,0.6163,0.6118,0.6118,0.6118,0.6118,0,0,0.5997,0.6016,0.6021,0.6028,0.6044,0.6058,0.6076,0.6092,0.6101,0.6114,0.6128,0.6151,0.6146,0.6156,0.6158,0.6169,0.619,0.6163,0.6164,0.6166,0.6216,0.6218,0.6222,0.6188,0.6189,0.619,0.6214,0,0.6024,0.6057,0.606,0.6089,0.6104,0.6102,0.6118,0.6128,0.6134,0.6147,0.6153,0.6168,0.6162,0.6167,0.6179,0.6185,0.6199,0.6183,0.6201,0.6201,0.6196,0.6226,0.6229,0.6252,0.6217,0.6218,0.6218,0,0.6061,0.6075,0.6105,0.6117,0.6123,0.6137,0.6151,0.6165,0.6176,0.6179,0.6189,0.619,0.6207,0.6197,0.622,0.6209,0.6216,0.622,0.6221,0.6222,0.621,0.6227,0.6259,0.6262,0.6224,0.6223,0.6223,0,0.6081,0.6107,0.6127,0.6134,0.6149,0.6158,0.6165,0.6176,0.6185,0.6198,0.6203,0.6218,0.6225,0.6236,0.624,0.6232,0.6262,0.6253,0.6264,0.6264,0.627,0.6269,0.6303,0.6277,0.6277,0.6276,0.6276,0,0.6111,0.6129,0.6136,0.6148,0.6168,0.6171,0.619,0.6197,0.6206,0.6219,0.6219,0.6231,0.6235,0.6248,0.6251,0.6269,0.6273,0.6275,0.6275,0.6274,0.6274,0.6278,0.6276,0.6277,0.6277,0.6277,0.6277,0,0.6136,0.6141,0.6163,0.6176,0.6179,0.6193,0.6202,0.6214,0.6219,0.6235,0.6239,0.6247,0.6261,0.6266,0.6284,0.6286,0.6306,0.6306,0.6302,0.6302,0.6312,0.6311,0.6349,0.6354,0.6326,0.6326,0.6326,0,0.6154,0.6167,0.6181,0.6189,0.6196,0.621,0.6219,0.6223,0.6232,0.6246,0.6255,0.627,0.6281,0.6304,0.6311,0.6324,0.6323,0.6336,0.6325,0.6323,0.6322,0.632,0.6321,0.6337,0.6338,0.6338,0.6338,0,0.6185,0.6187,0.62,0.6214,0.6224,0.6235,0.6246,0.6253,0.6258,0.6268,0.6283,0.6292,0.6309,0.6323,0.6336,0.6342,0.6341,0.6342,0.6345,0.6343,0.634,0.634,0.6306,0.634,0.634,0.634,0.634,0.634,0.6206,0.6217,0.6228,0.6242,0.625,0.626,0.6271,0.6276,0.6289,0.6303,0.6305,0.632,0.633,0.6348,0.6354,0.6366,0.6362,0.6367,0.6368,0.6369,0.6369,0.6339,0.6369,0.6369,0.6368,0.6368,0.6368,0,0.6236,0.6242,0.6255,0.627,0.628,0.6278,0.6289,0.6298,0.6312,0.6321,0.6332,0.6349,0.6362,0.6369,0.6382,0.6389,0.6389,0.6393,0.6391,0.6393,0.6372,0.6368,0.6393,0.6393,0.6393,0.6393,0.6393,0.6393,0.6253,0.6271,0.6274,0.6296,0.6302,0.6317,0.6323,0.6332,0.6339,0.6357,0.6368,0.6372,0.638,0.6394,0.6405,0.6407,0.6411,0.6415,0.6416,0.6397,0.6394,0.6392,0.6387,0.6416,0.6416,0.6435,0.6435,0.6435]},{"header":{"parameterUnit":"m.s-1","parameterCategory":1,"la1":30.2991,"la2":30.254,"lo1":-89.0895,"lo2":-89.0444,"dx":0.0017,"dy":0.0017,"nx":28,"ny":28,"refTime":"2023-02-12T09:00:00:Z","depth":0,"parameterNumber":3,"parameterNumberName":"V-component_of_WINDS"},"data":[0,0,0,0,0,0,0,0,0,0,0,0,0,0,0,0,0,0,0,0,0,0,0,0,0,0,0,0,0,0,0,0,0,0,0,0,0,0,0,0,0,0,0,0,0,0,0,0,0,0,0,0,0,0,0,0,0,0,3.1268,3.1268,0,3.1274,3.1274,3.1274,3.1218,3.1217,3.1215,3.1214,3.1219,3.122,3.1222,0,0,0,0,0,0,0,0,0,0,0,0,0,3.1208,3.1209,3.1268,3.1268,3.1269,3.1274,3.1274,3.1274,3.1219,3.1217,3.1215,3.1213,3.1218,3.122,3.1222,0,0,0,0,0,0,0,0,0,0,0,0,0,3.1226,3.121,3.1268,3.1241,3.1239,3.1274,3.1274,3.1274,3.1219,3.1217,3.1214,3.1212,3.1218,3.122,3.1222,3.1283,0,0,3.1229,3.123,0,0,0,0,0,0,0,0,3.1225,3.1228,3.1245,3.1243,3.1241,3.1243,3.1255,3.1277,3.122,3.1227,3.1214,3.1211,3.1229,3.123,3.1236,3.1283,3.1283,3.123,3.1231,3.1232,3.1233,0,0,0,0,0,0,0,3.1224,3.1228,3.1271,3.1246,3.1243,3.1229,3.1229,3.1259,3.124,3.1226,3.1222,3.1223,3.1227,3.1234,3.1236,3.1283,3.123,3.1232,3.1233,3.1234,3.1379,3.1381,0,0,0,0,0,0,3.1226,3.1227,3.127,3.1271,3.1227,3.1232,3.1232,3.1245,3.124,3.1237,3.1225,3.1221,3.1231,3.1233,3.1236,3.1305,3.1232,3.1234,3.1236,3.1377,3.138,3.1382,0,0,0,0,0,0,3.1225,3.1231,3.127,3.1248,3.1252,3.1235,3.125,3.1246,3.1253,3.124,3.1236,3.1236,3.1229,3.1232,3.1271,3.1304,3.1235,3.1237,3.1374,3.1377,3.1381,3.1445,0,0,0,0,0,0,3.1224,3.1231,3.1254,3.1249,3.1253,3.1306,3.1252,3.1248,3.1257,3.1251,3.1248,3.1246,3.1228,3.1268,3.1274,3.1306,3.1239,3.1371,3.1375,3.138,3.144,3.145,3.146,0,0,0,0,0,3.1222,3.1272,3.1256,3.1261,3.1282,3.1308,3.1311,3.1289,3.126,3.1283,3.1274,3.1246,3.13,3.1273,3.1278,3.1312,3.1368,3.1374,3.1379,3.1435,3.1448,3.1459,0,0,0,0,0,0,3.1282,3.1271,3.1252,3.1303,3.1307,3.1299,3.1327,3.1304,3.1316,3.131,3.1283,3.1282,3.1325,3.1323,3.1292,3.137,3.1329,3.1336,3.137,3.1382,3.1392,3.1391,3.1241,0,0,0,0,0,3.1301,3.1323,3.1313,3.1358,3.1361,3.1344,3.1355,3.1338,3.1341,3.1342,3.1336,3.134,3.1358,3.137,3.1386,3.144,3.1437,3.1466,3.1476,3.1484,3.149,3.1516,3.1528,3.14,3.14,3.14,0,0,3.134,3.1337,3.1353,3.137,3.1371,3.1394,3.1346,3.1373,3.1389,3.1346,3.1382,3.1378,3.138,3.1427,3.1447,3.1426,3.1525,3.1491,3.1498,3.1499,3.1523,3.1535,3.1546,3.1404,3.1403,3.1403,0,0,3.1424,3.1425,3.1461,3.1463,3.1466,3.1454,3.1463,3.1459,3.1454,3.149,3.1457,3.1477,3.1509,3.1511,3.1517,3.1601,3.1574,3.1607,3.1657,3.1684,3.1694,3.1703,3.1731,3.1742,3.1613,3.1613,3.1613,0,3.1472,3.1506,3.1483,3.1512,3.152,3.1482,3.1518,3.1521,3.1529,3.1535,3.1512,3.155,3.1549,3.1594,3.1615,3.1621,3.163,3.1606,3.1694,3.1703,3.1711,3.1737,3.1748,3.1617,3.1616,3.1616,3.1615,0,3.1565,3.1589,3.1619,3.1626,3.1638,3.167,3.1651,3.1666,3.1648,3.1638,3.1674,3.1672,3.1686,3.1696,3.1679,3.1739,3.1726,3.1699,3.1657,3.1727,3.1751,3.1762,3.1622,3.1621,3.162,3.1619,0,0,3.1686,3.168,3.1691,3.1693,3.1693,3.1711,3.1742,3.1755,3.1767,3.1774,3.1798,3.1825,3.18,3.1807,3.179,3.1813,3.1878,3.1783,3.1783,3.1799,3.1942,3.1961,3.1973,3.1861,3.1863,3.1865,3.1941,0,3.1765,3.1817,3.1797,3.185,3.1871,3.1835,3.1862,3.1864,3.1856,3.1872,3.1864,3.1883,3.1849,3.1852,3.1874,3.1865,3.1906,3.186,3.1882,3.1883,3.1881,3.1986,3.2006,3.2078,3.1951,3.1952,3.1953,0,3.1865,3.1875,3.193,3.1925,3.1933,3.1957,3.1967,3.1984,3.1986,3.1978,3.1985,3.1963,3.1992,3.1951,3.199,3.1959,3.1967,3.1965,3.1967,3.1967,3.1921,3.1987,3.2101,3.2111,3.1969,3.1967,3.1966,0,3.1945,3.1973,3.2009,3.2012,3.2008,3.2025,3.2024,3.2024,3.2033,3.2042,3.2047,3.206,3.2066,3.2076,3.2058,3.203,3.2099,3.2057,3.2092,3.2093,3.2107,3.2106,3.2222,3.2115,3.2115,3.2115,3.2115,0,3.2035,3.207,3.2044,3.2067,3.2104,3.208,3.2118,3.2113,3.2113,3.2133,3.2103,3.2122,3.2098,3.2114,3.21,3.2134,3.2137,3.2131,3.2127,3.2133,3.2133,3.2136,3.213,3.2118,3.2117,3.2117,3.2116,0,3.2131,3.2115,3.2152,3.2144,3.2143,3.2171,3.2164,3.2184,3.2174,3.2199,3.2204,3.2188,3.2206,3.2189,3.2207,3.2197,3.2241,3.223,3.224,3.2237,3.2272,3.2268,3.2393,3.2407,3.2293,3.2294,3.2295,0,3.2188,3.2214,3.2209,3.222,3.2221,3.2239,3.2248,3.2226,3.2236,3.224,3.2259,3.2275,3.2286,3.2316,3.2306,3.2319,3.2307,3.235,3.2309,3.2314,3.2306,3.2304,3.2305,3.2358,3.2359,3.236,3.2361,0,3.2292,3.2282,3.2296,3.2308,3.2319,3.2327,3.2332,3.2343,3.232,3.2334,3.2351,3.236,3.2378,3.2393,3.2403,3.2401,3.2377,3.2374,3.2383,3.2388,3.2393,3.2389,3.2261,3.2371,3.237,3.237,3.2369,3.2369,3.2368,3.2389,3.2388,3.2404,3.2406,3.2412,3.243,3.2422,3.2436,3.2448,3.2435,3.2456,3.2457,3.2467,3.2468,3.2485,3.2467,3.2479,3.2482,3.2485,3.249,3.2392,3.2487,3.2486,3.2486,3.2486,3.2486,0,3.2469,3.2466,3.2482,3.249,3.2502,3.2479,3.2484,3.2496,3.2515,3.2518,3.2529,3.2549,3.2564,3.2555,3.2568,3.2582,3.2571,3.2586,3.2584,3.2584,3.2506,3.2496,3.2595,3.2595,3.2594,3.2594,3.2594,3.2594,3.2522,3.2555,3.2546,3.2579,3.2576,3.2597,3.2601,3.2606,3.2608,3.2631,3.2643,3.2638,3.2635,3.2647,3.2659,3.2656,3.2662,3.268,3.2673,3.26,3.2589,3.2579,3.257,3.2682,3.2682,3.2749,3.2749,3.275]}]]